Regional Weather Roundup
Issued by NWS Columbia, SC

Home | Current Version | Previous Version | Text Only | Print | Product List | Glossary On
Versions: 1 2 3 4 5 6 7 8 9 10 11 12 13 14 15 16 17 18 19 20 21 22 23 24 25 26 27 28 29 30 31 32 33 34 35 36 37 38 39 40 41 42 43 44 45 46 47 48 49
000
ASUS42 KCAE 282310
RWRCAE
REGIONAL WEATHER ROUNDUP
NATIONAL WEATHER SERVICE COLUMBIA SC
700 PM EDT SAT MAR 28 2015

NOTE: "FAIR" INDICATES FEW OR NO CLOUDS BELOW 12,000 FEET WITH NO
SIGNIFICANT WEATHER AND/OR OBSTRUCTIONS TO VISIBILITY.

NOT ALL STATIONS ARE QUALITY CONTROLLED BY THE NATIONAL
WEATHER SERVICE. USE DATA WITH CAUTION...ESPECIALLY
DEWPOINT OBSERVATIONS.

SCZ001>056-GAZ040-063>065-077-290000-
...UPSTATE SOUTH CAROLINA...

CITY           SKY/WX    TMP DP  RH WIND       PRES   REMARKS
ANDERSON       CLEAR     53   6  15 NW13      30.09R
LIBERTY        CLEAR     51   9  18 NW13      30.08R
SPARTANBURG    CLEAR     50   5  16 N14G25    30.10R
CLEMSON        CLEAR     52   4  14 NW9G21    30.10R
GREENVILLE     CLEAR     50  10  20 N15       30.09R
GREENWOOD      CLEAR     53  14  21 W6        30.10R
GREER          CLEAR     49  10  20 N13       30.08R
ROCK HILL      CLEAR     49  15  25 NW8       30.10R
CHESTER        CLEAR     50  12  22 NW5       30.11R
LAURENS        CLEAR     52  28  40 CALM      30.08R


...CENTRAL SOUTH CAROLINA...

CITY           SKY/WX    TMP DP  RH WIND       PRES   REMARKS
COLUMBIA APT   PTCLDY    54  18  24 NW8       30.10R
COLUMBIA OWENS PTCLDY    54  17  23 W8G18     30.11R
DARLINGTON     CLEAR     52  21  30 N10       30.11R
FLORENCE       PTCLDY    53  19  26 NW13G20   30.09R
MCENTIRE ANGB  CLEAR     52  13  21 NW10      30.10R
ORANGEBURG     PTCLDY    54  20  26 NW12      30.10R
SUMTER SHAW    CLEAR     53  15  22 NW8       30.08R
NEWBERRY       CLEAR    N/A N/A N/A NW3       30.12R
AIKEN          FAIR      52  18  25 W8        30.13R
BARNWELL       FAIR      55  21  26 W8        30.11R
MANNING        FAIR     N/A N/A N/A NW7G18    30.10R
CAMDEN         FAIR      52  14  22 NW9       30.11R
LANCASTER      PTCLDY    50  14  23 W6        30.10R
WINNSBORO      CLEAR     52  19  28 NW6       30.09R


...EASTERN AND COASTAL SOUTH CAROLINA...

CITY           SKY/WX    TMP DP  RH WIND       PRES   REMARKS
MYRTLE BEACH   PTCLDY    55  25  30 NW9       30.09R
N MYRTLE BCH   CLEAR     53  25  33 VRB6      30.07R
CONWAY         FAIR      52  27  37 NW5       30.09R HAZE
MARION         FAIR      52  23  32 NW9       30.09R
HARTSVILLE     FAIR      50  14  23 NW5       30.10R
FLORENCE       PTCLDY    53  19  26 NW13G20   30.09R
DARLINGTON     CLEAR     52  21  30 N10       30.11R
CHARLESTON APT PTCLDY    55  23  28 NW13G20   30.09R
MOUNT PLEASANT FAIR      55  28  35 NW10      30.09R
WALTERBORO     CLEAR     54  21  28 NW8       30.10R
BEAUFORT       CLEAR     57  22  25 NW9       30.10R


...EASTERN GEORGIA...

CITY           SKY/WX    TMP DP  RH WIND       PRES   REMARKS
AUGUSTA BUSH F CLEAR     55  17  22 W15       30.11R
AUGUSTA DANIEL CLEAR     56  16  20 NW12      30.11R
THOMSON        CLEAR     56  23  28 NW8       30.16R
WASHINGTON     FAIR      55  27  33 W7        30.11R
CLAXTON        FAIR      55  30  38 W10G17    30.12R
SYLVANIA       CLEAR     56  24  29 W13       30.12R
STATESBORO     CLEAR     56  24  29 NW7       30.11R
SAVANNAH       CLEAR     57  23  26 W13       30.11R


...SOUTHERN NORTH CAROLINA...

CITY           SKY/WX    TMP DP  RH WIND       PRES   REMARKS
CHARLOTTE      PTCLDY    48   8  19 N10       30.11R
MONROE         CLEAR     49   9  19 NW12      30.09R
WADESBORO      CLEAR     49   7  18 NW8       30.11R
ROCKINGHAM       N/A     48  14  25 NW9       30.10R
RUTHERFORDTON  CLEAR     46  11  24 N7        30.12R
ASHEVILLE      CLEAR     39  10  30 NW20G25   30.11R WCI  29

$$


USA.gov is the U.S. government's official web portal to all federal, state and local government web resources and services.